Regional Weather Roundup
Issued by NWS Green Bay, WI

Home | Current Version | Previous Version | Text Only | Print | Product List | Glossary On
Versions: 1 2 3 4 5 6 7 8 9 10 11 12 13 14 15 16 17 18 19 20 21 22 23 24 25 26 27 28 29 30 31 32 33 34 35 36 37 38 39 40 41 42 43 44 45 46 47 48 49 50
000
ASUS43 KGRB 222111
RWRGRB

NORTH-CENTRAL AND NORTHEAST WISCONSIN REGIONAL WEATHER ROUNDUP
NATIONAL WEATHER SERVICE GREEN BAY WI
400 PM CDT SUN OCT 22 2017

WIZ005-009-010>012-018-019-222200-
NORTH CENTRAL WISCONSIN

CITY           SKY/WX    TMP DP  RH WIND       PRES   REMARKS
IRONWOOD       CLOUDY    51  37  58 SW8       29.91R
MANITOWISH WTR CLOUDY    48  42  80 SW7       29.93R
ARBOR VITAE    CLOUDY    52  45  76 SW5       29.93R
EAGLE RIVER    NOT AVBL
LAND O LAKES   CLOUDY    49  41  73 SW6       29.93F
RHINELANDER    CLOUDY    49  43  80 W6        29.95S
PHILLIPS       SUNNY     50  40  67 SW6       29.94R
ANTIGO         CLOUDY    47  46  93 W6        29.97S
TOMAHAWK       CLOUDY    48  41  76 CALM      29.96S
MERRILL        CLOUDY    50  42  74 W6        29.98R
$$

WIZ013-073-222200-
NORTHEAST WISCONSIN

CITY           SKY/WX    TMP DP  RH WIND       PRES   REMARKS
IRON MOUNTAIN  LGT RAIN  50  45  83 W3        29.94R
MARINETTE      LGT RAIN  52  50  93 W3        29.98R
OCONTO         CLOUDY    51  49  94 CALM      29.98R
$$

WIZ017-030-035>037-045-222200-
CENTRAL WISCONSIN

CITY           SKY/WX    TMP DP  RH WIND       PRES   REMARKS
MEDFORD        CLOUDY    50  39  67 W8        29.96S
WAUSAU         CLOUDY    51  43  74 SW5       29.96S
MOSINEE        PTSUNNY   50  45  81 SW3       29.98F
MARSHFIELD     CLOUDY    50  43  77 SW6       29.98R
WISC RAPIDS    CLOUDY    51  48  89 SW7       30.00S
STEVENS POINT  CLOUDY    48  48  97 S3        29.98S
WAUPACA        LGT RAIN  52  49  89 CALM      30.00S
SHAWANO        DRIZZLE   52  48  87 CALM      29.99R
CLINTONVILLE   LGT RAIN  52  46  82 SW5       30.00R
WAUTOMA        LGT RAIN N/A N/A N/A SW3       30.01S
$$

WIZ038-039-048-051-222200-
FOX VALLEY

CITY           SKY/WX    TMP DP  RH WIND       PRES   REMARKS
NWS GREEN BAY  LGT RAIN  52  52 100 W5        29.99R
APPLETON       LGT RAIN  52  48  87 W7        29.99R
OSHKOSH        LGT RAIN  51  49  92 NW5       30.00R
FOND DU LAC    LGT RAIN  52  47  83 NW5       30.01R
$$

WIZ022-050-052-222200-
EAST CENTRAL WISCONSIN

CITY           SKY/WX    TMP DP  RH WIND       PRES   REMARKS
EPHRAIM        DRIZZLE   49  48  93 NW3       29.96R
WASHINGTON ISL CLOUDY    50  47  88 CALM      29.96R
STURGEON BAY   LGT RAIN  52  49  89 CALM      29.98R
MANITOWOC      NOT AVBL
SHEBOYGAN      LGT RAIN  51  50  96 NW5       30.00R FOG
$$

LMZ563-521-522-541>543-222200-
LAKESHORE

STATION/POSITION TIME  TEMP    WIND        PRES    VSBY  WAVE
                       AIR SEA DIR/SP/G                  HT/PER
                 (UTC) (F)     (DEG/KT/KT) (MB)    (MI)  (FT/S)
SHEBOYGAN LKSHOR 2100   52     320/  6/  7 1016.0R
KEWAUNEE LKSHORE 2048   52     290/  1/  2 1014.4R
NORTHPORT PIER   2040   52     290/  6/  8 1014.6R
N MID LAKE BUOY  2050   53 58  310/ 14/ 16 1015.1R         5/ 7
S GREEN BAY BUOY 2100   54 58  260/  8/ 10 1014.9
SISTER BAY LKSHO 2019   51     310/  8/  9   N/A
MENOMINEE LKSHOR 2048   52     180/  5/  6 1014.5R
$$




USA.gov is the U.S. government's official web portal to all federal, state and local government web resources and services.